Time,TemperatureF,DewpointF,PressureIn,WindDirection,WindDirectionDegrees,WindSpeedMPH,WindSpeedGustMPH,Humidity,HourlyPrecipIn,Conditions,Clouds,dailyrainin,SoftwareType,DateUTC
2013-02-06 00:00:00,44.2,41.4,29.90,South,180,9.0,13.4,89,0.00,,,0.18,NetBSD+Arduino,2013-02-06 08:00:00,
2013-02-06 00:06:00,44.2,41.4,29.91,South,180,8.4,19.4,89,0.00,,,0.00,NetBSD+Arduino,2013-02-06 08:06:00,
2013-02-06 00:11:00,44.1,41.3,29.91,South,180,3.4,10.4,89,0.00,,,0.00,NetBSD+Arduino,2013-02-06 08:11:00,
2013-02-06 00:16:00,44.1,41.2,29.92,West,270,8.6,17.9,89,0.00,,,0.00,NetBSD+Arduino,2013-02-06 08:16:00,
2013-02-06 00:21:00,44.1,41.1,29.92,NW,315,6.7,10.4,89,0.00,,,0.00,NetBSD+Arduino,2013-02-06 08:21:00,
2013-02-06 00:26:00,44.1,41.1,29.92,South,180,3.7,11.9,89,0.00,,,0.00,NetBSD+Arduino,2013-02-06 08:26:00,
2013-02-06 00:31:00,43.9,41.0,29.92,South,180,3.4,14.9,89,0.00,,,0.00,NetBSD+Arduino,2013-02-06 08:31:00,
2013-02-06 00:36:00,44.1,41.0,29.92,South,180,7.5,16.4,88,0.00,,,0.00,NetBSD+Arduino,2013-02-06 08:36:00,
2013-02-06 00:41:00,44.1,41.0,29.92,South,180,4.8,13.4,88,0.00,,,0.00,NetBSD+Arduino,2013-02-06 08:41:00,
2013-02-06 00:50:00,44.0,40.9,29.92,South,180,8.7,16.4,88,0.00,,,0.00,NetBSD+Arduino,2013-02-06 08:50:00,
2013-02-06 01:00:00,44.0,41.2,29.92,South,180,9.0,13.4,89,0.00,,,0.00,NetBSD+Arduino,2013-02-06 09:00:00,
2013-02-06 01:05:00,44.1,41.2,29.92,South,180,5.6,23.9,89,0.00,,,0.00,NetBSD+Arduino,2013-02-06 09:05:00,
2013-02-06 01:25:00,43.8,40.9,29.93,South,180,4.8,14.9,89,0.00,,,0.00,NetBSD+Arduino,2013-02-06 09:25:00,
2013-02-06 01:36:00,43.6,40.8,29.93,West,270,3.4,13.4,89,0.00,,,0.00,NetBSD+Arduino,2013-02-06 09:36:00,
2013-02-06 01:46:00,43.6,40.9,29.93,South,180,5.6,10.4,90,0.00,,,0.00,NetBSD+Arduino,2013-02-06 09:46:00,
2013-02-06 01:51:00,43.7,40.9,29.94,South,180,4.1,16.4,89,0.00,,,0.00,NetBSD+Arduino,2013-02-06 09:51:00,
2013-02-06 02:00:00,43.6,40.5,29.94,South,180,4.5,14.9,88,0.00,,,0.00,NetBSD+Arduino,2013-02-06 10:00:00,
2013-02-06 02:06:00,43.5,40.4,29.94,South,180,5.6,17.9,88,0.00,,,0.00,NetBSD+Arduino,2013-02-06 10:06:00,
2013-02-06 02:16:00,43.5,40.8,29.94,South,180,15.3,16.4,90,0.00,,,0.00,NetBSD+Arduino,2013-02-06 10:16:00,
2013-02-06 02:21:00,43.5,40.9,29.95,South,180,7.5,17.9,90,0.00,,,0.00,NetBSD+Arduino,2013-02-06 10:21:00,
2013-02-06 02:30:00,43.5,40.9,29.95,South,180,3.7,16.4,90,0.00,,,0.00,NetBSD+Arduino,2013-02-06 10:30:00,
2013-02-06 02:45:00,43.6,41.0,29.95,South,180,6.7,13.4,90,0.00,,,0.00,NetBSD+Arduino,2013-02-06 10:45:00,
2013-02-06 02:51:00,43.6,41.0,29.95,South,180,1.9,13.4,90,0.00,,,0.00,NetBSD+Arduino,2013-02-06 10:51:00,
2013-02-06 03:00:00,43.7,40.9,29.95,South,180,5.5,14.9,89,0.00,,,0.00,NetBSD+Arduino,2013-02-06 11:00:00,
2013-02-06 03:10:00,43.7,41.0,29.95,South,180,4.1,11.9,90,0.00,,,0.00,NetBSD+Arduino,2013-02-06 11:10:00,
2013-02-06 03:15:00,43.7,41.1,29.95,South,180,3.5,13.4,90,0.00,,,0.00,NetBSD+Arduino,2013-02-06 11:15:00,
2013-02-06 03:20:00,43.6,41.0,29.95,South,180,9.0,14.9,90,0.00,,,0.00,NetBSD+Arduino,2013-02-06 11:20:00,
2013-02-06 03:25:00,43.6,41.0,29.96,South,180,4.8,14.9,90,0.00,,,0.00,NetBSD+Arduino,2013-02-06 11:25:00,
2013-02-06 03:30:00,43.5,41.1,29.96,South,180,3.5,14.9,91,0.00,,,0.00,NetBSD+Arduino,2013-02-06 11:30:00,
2013-02-06 03:35:00,43.5,41.1,29.96,South,180,3.7,11.9,91,0.00,,,0.00,NetBSD+Arduino,2013-02-06 11:35:00,
2013-02-06 03:41:00,43.6,41.2,29.96,SW,225,6.5,16.4,91,0.00,,,0.00,NetBSD+Arduino,2013-02-06 11:41:00,
2013-02-06 03:46:00,43.3,41.4,29.96,South,180,3.7,13.4,92,0.00,,,0.00,NetBSD+Arduino,2013-02-06 11:46:00,
2013-02-06 03:55:00,43.0,41.3,29.96,South,180,7.1,11.9,93,0.00,,,0.00,NetBSD+Arduino,2013-02-06 11:55:00,
2013-02-06 04:00:00,43.0,41.3,29.97,SW,225,8.5,11.9,93,0.00,,,0.00,NetBSD+Arduino,2013-02-06 12:00:00,
2013-02-06 04:16:00,43.0,41.1,29.97,South,180,9.0,11.9,92,0.00,,,0.00,NetBSD+Arduino,2013-02-06 12:16:00,
2013-02-06 04:26:00,43.2,41.2,29.97,South,180,4.5,13.4,92,0.00,,,0.00,NetBSD+Arduino,2013-02-06 12:26:00,
2013-02-06 04:31:00,43.1,41.1,29.97,South,180,8.6,11.9,92,0.00,,,0.00,NetBSD+Arduino,2013-02-06 12:31:00,
2013-02-06 04:40:00,43.0,41.1,29.98,South,180,3.7,13.4,92,0.00,,,0.00,NetBSD+Arduino,2013-02-06 12:40:00,
2013-02-06 04:45:00,43.1,41.2,29.98,South,180,3.0,14.9,92,0.02,,,0.02,NetBSD+Arduino,2013-02-06 12:45:00,
2013-02-06 04:50:00,43.2,41.3,29.99,South,180,7.5,13.4,92,0.02,,,0.02,NetBSD+Arduino,2013-02-06 12:50:00,
2013-02-06 04:55:00,43.2,41.3,29.98,South,180,6.3,10.4,92,0.02,,,0.02,NetBSD+Arduino,2013-02-06 12:55:00,
2013-02-06 05:00:00,43.2,41.3,29.99,South,180,11.6,14.9,92,0.02,,,0.02,NetBSD+Arduino,2013-02-06 13:00:00,
2013-02-06 05:05:00,43.2,41.3,29.99,South,180,3.0,16.4,92,0.02,,,0.02,NetBSD+Arduino,2013-02-06 13:05:00,
2013-02-06 05:10:00,43.2,41.3,29.98,South,180,9.0,13.4,92,0.02,,,0.02,NetBSD+Arduino,2013-02-06 13:10:00,
2013-02-06 05:15:00,43.3,41.2,29.98,South,180,9.3,16.4,92,0.02,,,0.02,NetBSD+Arduino,2013-02-06 13:15:00,
2013-02-06 05:20:00,43.4,41.0,29.99,SW,225,7.8,17.9,91,0.02,,,0.02,NetBSD+Arduino,2013-02-06 13:20:00,
2013-02-06 05:25:00,43.3,41.2,29.99,South,180,9.0,17.9,92,0.02,,,0.02,NetBSD+Arduino,2013-02-06 13:25:00,
2013-02-06 05:31:00,43.3,41.2,29.99,South,180,1.1,16.4,92,0.02,,,0.02,NetBSD+Arduino,2013-02-06 13:31:00,
2013-02-06 05:40:00,43.3,41.2,29.99,South,180,6.6,11.9,92,0.02,,,0.02,NetBSD+Arduino,2013-02-06 13:40:00,
2013-02-06 05:45:00,43.3,41.2,29.99,South,180,4.0,13.4,92,0.00,,,0.02,NetBSD+Arduino,2013-02-06 13:45:00,
2013-02-06 05:50:00,43.3,41.2,30.00,South,180,5.0,11.9,92,0.00,,,0.02,NetBSD+Arduino,2013-02-06 13:50:00,
2013-02-06 05:55:00,43.3,41.1,29.99,South,180,13.4,14.9,92,0.00,,,0.02,NetBSD+Arduino,2013-02-06 13:55:00,
2013-02-06 06:00:00,43.3,41.1,29.99,SW,225,5.2,16.4,92,0.00,,,0.02,NetBSD+Arduino,2013-02-06 14:00:00,
2013-02-06 06:05:00,43.3,41.1,29.99,East,90,2.6,10.4,92,0.00,,,0.02,NetBSD+Arduino,2013-02-06 14:05:00,
2013-02-06 06:10:00,43.2,41.0,30.00,South,180,4.8,16.4,92,0.00,,,0.02,NetBSD+Arduino,2013-02-06 14:10:00,
2013-02-06 06:15:00,43.3,41.1,30.00,South,180,10.4,13.4,92,0.00,,,0.02,NetBSD+Arduino,2013-02-06 14:15:00,
2013-02-06 06:25:00,43.3,41.2,30.00,NE,45,6.0,16.4,92,0.00,,,0.02,NetBSD+Arduino,2013-02-06 14:25:00,
2013-02-06 06:30:00,43.4,41.2,30.00,SE,135,7.5,16.4,91,0.00,,,0.02,NetBSD+Arduino,2013-02-06 14:30:00,
2013-02-06 06:35:00,43.3,41.0,30.00,South,180,6.0,14.9,91,0.00,,,0.02,NetBSD+Arduino,2013-02-06 14:35:00,
2013-02-06 06:45:00,43.5,41.1,30.00,South,180,7.5,13.4,91,0.00,,,0.02,NetBSD+Arduino,2013-02-06 14:45:00,
2013-02-06 06:50:00,43.5,41.1,30.00,South,180,7.5,14.9,91,0.00,,,0.02,NetBSD+Arduino,2013-02-06 14:50:00,
2013-02-06 06:55:00,43.3,41.1,30.00,SE,135,8.0,14.9,91,0.00,,,0.02,NetBSD+Arduino,2013-02-06 14:55:00,
2013-02-06 07:00:00,43.3,41.1,30.00,South,180,8.4,16.4,91,0.00,,,0.02,NetBSD+Arduino,2013-02-06 15:00:00,
2013-02-06 07:05:00,43.2,41.0,30.00,South,180,3.4,13.4,92,0.00,,,0.02,NetBSD+Arduino,2013-02-06 15:05:00,
2013-02-06 07:10:00,43.2,41.0,30.00,South,180,7.1,17.9,92,0.00,,,0.02,NetBSD+Arduino,2013-02-06 15:10:00,
2013-02-06 07:20:00,42.8,40.8,30.01,South,180,3.4,17.9,92,0.00,,,0.02,NetBSD+Arduino,2013-02-06 15:20:00,
2013-02-06 07:25:00,42.9,40.8,30.00,South,180,8.5,16.4,92,0.00,,,0.02,NetBSD+Arduino,2013-02-06 15:25:00,
2013-02-06 07:30:00,43.0,40.7,30.01,South,180,7.8,14.9,91,0.00,,,0.02,NetBSD+Arduino,2013-02-06 15:30:00,
2013-02-06 07:35:00,42.9,40.8,30.01,South,180,4.8,17.9,92,0.00,,,0.02,NetBSD+Arduino,2013-02-06 15:35:00,
2013-02-06 07:40:00,42.8,40.7,30.02,South,180,2.5,11.9,92,0.00,,,0.02,NetBSD+Arduino,2013-02-06 15:40:00,
2013-02-06 07:50:00,42.8,40.7,30.02,South,180,4.8,14.9,92,0.00,,,0.02,NetBSD+Arduino,2013-02-06 15:50:00,
2013-02-06 07:55:00,42.8,40.8,30.02,SE,135,7.8,14.9,92,0.00,,,0.02,NetBSD+Arduino,2013-02-06 15:55:00,
2013-02-06 08:00:00,42.8,40.9,30.02,South,180,5.0,14.9,93,0.00,,,0.02,NetBSD+Arduino,2013-02-06 16:00:00,
2013-02-06 08:05:00,42.8,40.9,30.02,South,180,6.7,17.9,93,0.00,,,0.02,NetBSD+Arduino,2013-02-06 16:05:00,
2013-02-06 08:10:00,42.8,41.0,30.02,South,180,4.5,17.9,93,0.00,,,0.02,NetBSD+Arduino,2013-02-06 16:10:00,
2013-02-06 08:15:00,42.9,41.2,30.02,South,180,5.2,11.9,93,0.00,,,0.02,NetBSD+Arduino,2013-02-06 16:15:00,
2013-02-06 08:20:00,42.9,41.1,30.02,South,180,9.0,11.9,93,0.00,,,0.02,NetBSD+Arduino,2013-02-06 16:20:00,
2013-02-06 08:25:00,42.8,40.8,30.03,South,180,6.0,11.9,92,0.00,,,0.02,NetBSD+Arduino,2013-02-06 16:25:00,
2013-02-06 08:35:00,43.0,41.1,30.03,South,180,5.2,11.9,92,0.00,,,0.02,NetBSD+Arduino,2013-02-06 16:35:00,
2013-02-06 08:40:00,43.2,41.3,30.02,South,180,5.2,9.0,92,0.00,,,0.02,NetBSD+Arduino,2013-02-06 16:40:00,
2013-02-06 08:45:00,43.3,41.2,30.02,South,180,1.0,11.9,92,0.00,,,0.02,NetBSD+Arduino,2013-02-06 16:45:00,
2013-02-06 08:50:00,43.3,41.2,30.02,East,90,3.4,10.4,92,0.00,,,0.02,NetBSD+Arduino,2013-02-06 16:50:00,
2013-02-06 08:55:00,43.5,41.2,30.02,South,180,1.9,9.0,91,0.00,,,0.02,NetBSD+Arduino,2013-02-06 16:55:00,
2013-02-06 09:00:00,43.6,41.3,30.02,South,180,6.0,11.9,91,0.00,,,0.02,NetBSD+Arduino,2013-02-06 17:00:00,
2013-02-06 09:10:00,43.9,41.0,30.02,South,180,9.0,13.4,89,0.00,,,0.02,NetBSD+Arduino,2013-02-06 17:10:00,
2013-02-06 09:20:00,44.2,41.2,30.02,South,180,6.7,10.4,88,0.00,,,0.02,NetBSD+Arduino,2013-02-06 17:20:00,
2013-02-06 09:25:00,44.5,41.2,30.02,South,180,5.6,13.4,88,0.00,,,0.02,NetBSD+Arduino,2013-02-06 17:25:00,
2013-02-06 09:30:00,44.6,41.0,30.02,South,180,5.6,14.9,86,0.00,,,0.02,NetBSD+Arduino,2013-02-06 17:30:00,
2013-02-06 09:35:00,44.9,41.0,30.02,South,180,8.0,14.9,86,0.00,,,0.02,NetBSD+Arduino,2013-02-06 17:35:00,
2013-02-06 09:40:00,44.9,41.0,30.02,South,180,1.9,11.9,86,0.00,,,0.02,NetBSD+Arduino,2013-02-06 17:40:00,
2013-02-06 09:45:00,45.1,41.1,30.02,South,180,3.0,11.9,85,0.00,,,0.02,NetBSD+Arduino,2013-02-06 17:45:00,
2013-02-06 09:50:00,45.5,41.2,30.02,South,180,5.0,13.4,84,0.00,,,0.02,NetBSD+Arduino,2013-02-06 17:50:00,
2013-02-06 09:55:00,45.6,41.8,30.02,South,180,2.1,7.5,86,0.00,,,0.02,NetBSD+Arduino,2013-02-06 17:55:00,
2013-02-06 10:00:00,45.6,41.9,30.02,South,180,3.7,9.0,86,0.00,,,0.02,NetBSD+Arduino,2013-02-06 18:00:00,
2013-02-06 10:05:00,45.9,41.5,30.02,South,180,5.6,11.9,84,0.00,,,0.02,NetBSD+Arduino,2013-02-06 18:05:00,
2013-02-06 10:10:00,45.9,41.0,30.02,South,180,4.5,16.4,82,0.00,,,0.02,NetBSD+Arduino,2013-02-06 18:10:00,
2013-02-06 10:15:00,46.2,41.2,30.02,SW,225,1.9,11.9,82,0.00,,,0.02,NetBSD+Arduino,2013-02-06 18:15:00,
2013-02-06 10:20:00,46.2,41.6,30.02,South,180,4.5,9.0,83,0.00,,,0.02,NetBSD+Arduino,2013-02-06 18:20:00,
2013-02-06 10:25:00,46.2,41.4,30.02,South,180,4.5,10.4,83,0.00,,,0.02,NetBSD+Arduino,2013-02-06 18:25:00,
2013-02-06 10:30:00,46.2,41.7,30.01,South,180,3.4,10.4,84,0.00,,,0.02,NetBSD+Arduino,2013-02-06 18:30:00,
2013-02-06 10:35:00,46.2,41.8,30.02,South,180,2.5,10.4,84,0.00,,,0.02,NetBSD+Arduino,2013-02-06 18:35:00,
2013-02-06 10:40:00,46.1,41.6,30.01,South,180,3.7,10.4,84,0.00,,,0.02,NetBSD+Arduino,2013-02-06 18:40:00,
2013-02-06 10:45:00,46.3,41.0,30.02,South,180,3.0,14.9,81,0.00,,,0.02,NetBSD+Arduino,2013-02-06 18:45:00,
2013-02-06 10:50:00,46.4,41.7,30.02,South,180,8.2,9.0,83,0.00,,,0.02,NetBSD+Arduino,2013-02-06 18:50:00,
2013-02-06 10:55:00,46.7,41.0,30.02,SW,225,5.0,11.9,80,0.00,,,0.02,NetBSD+Arduino,2013-02-06 18:55:00,
2013-02-06 11:00:00,46.9,41.0,30.02,South,180,5.1,9.0,79,0.00,,,0.02,NetBSD+Arduino,2013-02-06 19:00:00,
2013-02-06 11:05:00,47.1,41.0,30.00,SW,225,3.0,10.4,79,0.00,,,0.02,NetBSD+Arduino,2013-02-06 19:05:00,
2013-02-06 11:10:00,47.1,40.8,30.00,East,90,1.5,9.0,78,0.00,,,0.02,NetBSD+Arduino,2013-02-06 19:10:00,
2013-02-06 11:15:00,47.1,41.0,30.01,South,180,10.4,14.9,79,0.00,,,0.02,NetBSD+Arduino,2013-02-06 19:15:00,
2013-02-06 11:20:00,47.1,40.4,30.01,South,180,6.0,16.4,77,0.00,,,0.02,NetBSD+Arduino,2013-02-06 19:20:00,
2013-02-06 11:25:00,47.3,40.6,30.00,SW,225,0.7,10.4,77,0.00,,,0.02,NetBSD+Arduino,2013-02-06 19:25:00,
2013-02-06 11:30:00,47.2,40.2,30.00,South,180,8.2,9.0,76,0.00,,,0.02,NetBSD+Arduino,2013-02-06 19:30:00,
2013-02-06 11:35:00,47.1,39.8,30.00,South,180,4.8,11.9,75,0.00,,,0.02,NetBSD+Arduino,2013-02-06 19:35:00,
2013-02-06 11:40:00,47.2,40.0,30.00,South,180,6.5,14.9,75,0.00,,,0.02,NetBSD+Arduino,2013-02-06 19:40:00,
2013-02-06 11:45:00,47.4,40.2,30.00,South,180,2.6,11.9,76,0.00,,,0.02,NetBSD+Arduino,2013-02-06 19:45:00,
2013-02-06 11:50:00,47.2,40.3,30.00,South,180,5.6,9.0,77,0.00,,,0.02,NetBSD+Arduino,2013-02-06 19:50:00,
2013-02-06 11:55:00,47.0,40.5,30.00,South,180,4.5,7.5,77,0.00,,,0.02,NetBSD+Arduino,2013-02-06 19:55:00,
2013-02-06 12:00:00,46.9,40.8,30.00,South,180,4.5,9.0,79,0.00,,,0.02,NetBSD+Arduino,2013-02-06 20:00:00,
2013-02-06 12:05:00,47.2,41.0,29.99,South,180,3.4,9.0,79,0.00,,,0.02,NetBSD+Arduino,2013-02-06 20:05:00,
2013-02-06 12:10:00,47.4,40.7,29.99,South,180,4.5,10.4,77,0.00,,,0.02,NetBSD+Arduino,2013-02-06 20:10:00,
2013-02-06 12:15:00,47.7,40.8,29.99,South,180,2.2,9.0,77,0.00,,,0.02,NetBSD+Arduino,2013-02-06 20:15:00,
2013-02-06 12:20:00,48.1,41.1,29.99,South,180,3.7,6.0,76,0.00,,,0.02,NetBSD+Arduino,2013-02-06 20:20:00,
2013-02-06 12:25:00,48.2,40.0,29.98,South,180,7.5,13.4,73,0.00,,,0.02,NetBSD+Arduino,2013-02-06 20:25:00,
2013-02-06 12:30:00,48.5,40.3,29.98,South,180,5.4,13.4,73,0.00,,,0.02,NetBSD+Arduino,2013-02-06 20:30:00,
2013-02-06 12:35:00,48.5,40.6,29.97,South,180,3.0,9.0,74,0.00,,,0.02,NetBSD+Arduino,2013-02-06 20:35:00,
2013-02-06 12:40:00,49.0,41.1,29.97,South,180,4.8,9.0,74,0.00,,,0.02,NetBSD+Arduino,2013-02-06 20:40:00,
2013-02-06 12:45:00,49.8,39.6,29.97,South,180,7.8,16.4,67,0.00,,,0.02,NetBSD+Arduino,2013-02-06 20:45:00,
2013-02-06 12:50:00,50.0,39.8,29.97,South,180,8.2,13.4,67,0.00,,,0.02,NetBSD+Arduino,2013-02-06 20:50:00,
2013-02-06 12:55:00,50.1,40.3,29.97,South,180,4.5,10.4,68,0.00,,,0.02,NetBSD+Arduino,2013-02-06 20:55:00,
2013-02-06 13:00:00,49.8,40.0,29.97,South,180,8.2,13.4,68,0.00,,,0.02,NetBSD+Arduino,2013-02-06 21:00:00,
2013-02-06 13:05:00,49.8,39.8,29.97,South,180,3.0,11.9,68,0.00,,,0.02,NetBSD+Arduino,2013-02-06 21:05:00,
2013-02-06 13:10:00,49.6,39.8,29.97,SW,225,4.5,11.9,68,0.00,,,0.02,NetBSD+Arduino,2013-02-06 21:10:00,
2013-02-06 13:15:00,49.5,40.0,29.96,South,180,3.7,16.4,69,0.00,,,0.02,NetBSD+Arduino,2013-02-06 21:15:00,
2013-02-06 13:20:00,49.2,39.8,29.96,SW,225,7.8,14.9,69,0.00,,,0.02,NetBSD+Arduino,2013-02-06 21:20:00,
2013-02-06 13:25:00,49.4,39.6,29.96,SW,225,4.0,13.4,68,0.00,,,0.02,NetBSD+Arduino,2013-02-06 21:25:00,
2013-02-06 13:30:00,49.5,40.0,29.96,South,180,3.0,10.4,69,0.00,,,0.02,NetBSD+Arduino,2013-02-06 21:30:00,
2013-02-06 13:35:00,49.5,40.2,29.96,South,180,4.8,14.9,70,0.00,,,0.02,NetBSD+Arduino,2013-02-06 21:35:00,
2013-02-06 13:40:00,50.1,40.6,29.95,South,180,5.0,11.9,69,0.00,,,0.02,NetBSD+Arduino,2013-02-06 21:40:00,
2013-02-06 13:45:00,50.7,41.2,29.95,South,180,1.9,10.4,69,0.00,,,0.02,NetBSD+Arduino,2013-02-06 21:45:00,
2013-02-06 13:50:00,50.8,40.4,29.95,South,180,5.5,10.4,67,0.00,,,0.02,NetBSD+Arduino,2013-02-06 21:50:00,
2013-02-06 13:55:00,50.7,41.2,29.95,South,180,1.1,11.9,69,0.00,,,0.02,NetBSD+Arduino,2013-02-06 21:55:00,
2013-02-06 14:00:00,50.7,40.7,29.95,South,180,3.4,9.0,68,0.00,,,0.02,NetBSD+Arduino,2013-02-06 22:00:00,
2013-02-06 14:05:00,50.8,40.8,29.95,South,180,6.3,13.4,68,0.00,,,0.02,NetBSD+Arduino,2013-02-06 22:05:00,
2013-02-06 14:10:00,50.7,40.5,29.94,SW,225,2.2,9.0,68,0.00,,,0.02,NetBSD+Arduino,2013-02-06 22:10:00,
2013-02-06 14:15:00,50.3,40.7,29.94,SW,225,2.5,11.9,69,0.00,,,0.02,NetBSD+Arduino,2013-02-06 22:15:00,
2013-02-06 14:20:00,49.9,41.1,29.94,West,270,0.5,11.9,71,0.00,,,0.02,NetBSD+Arduino,2013-02-06 22:20:00,
2013-02-06 14:25:00,48.9,41.6,29.94,South,180,1.9,14.9,75,0.00,,,0.02,NetBSD+Arduino,2013-02-06 22:25:00,
2013-02-06 14:30:00,48.1,41.8,29.95,West,270,3.0,13.4,78,0.00,,,0.02,NetBSD+Arduino,2013-02-06 22:30:00,
2013-02-06 14:35:00,47.5,42.9,29.94,South,180,9.4,16.4,83,0.00,,,0.02,NetBSD+Arduino,2013-02-06 22:35:00,
2013-02-06 14:40:00,47.2,43.5,29.94,South,180,2.0,9.0,86,0.00,,,0.02,NetBSD+Arduino,2013-02-06 22:40:00,
2013-02-06 14:45:00,47.2,43.5,29.93,West,270,2.0,7.5,86,0.00,,,0.02,NetBSD+Arduino,2013-02-06 22:45:00,
2013-02-06 14:50:00,47.5,43.4,29.93,South,180,1.9,9.0,85,0.00,,,0.02,NetBSD+Arduino,2013-02-06 22:50:00,
2013-02-06 14:55:00,47.4,43.0,29.93,SW,225,0.7,10.4,84,0.00,,,0.02,NetBSD+Arduino,2013-02-06 22:55:00,
2013-02-06 15:00:00,47.5,42.8,29.93,SW,225,4.5,10.4,83,0.00,,,0.02,NetBSD+Arduino,2013-02-06 23:00:00,
2013-02-06 15:10:00,47.7,42.4,29.93,South,180,4.5,11.9,81,0.00,,,0.02,NetBSD+Arduino,2013-02-06 23:10:00,
2013-02-06 15:15:00,48.0,42.7,29.93,South,180,1.0,7.5,81,0.00,,,0.02,NetBSD+Arduino,2013-02-06 23:15:00,
2013-02-06 15:20:00,47.9,42.3,29.93,South,180,5.6,10.4,81,0.00,,,0.02,NetBSD+Arduino,2013-02-06 23:20:00,
2013-02-06 15:25:00,47.7,41.5,29.93,South,180,5.6,11.9,79,0.00,,,0.02,NetBSD+Arduino,2013-02-06 23:25:00,
2013-02-06 15:30:00,47.6,41.5,29.93,South,180,6.5,16.4,79,0.00,,,0.02,NetBSD+Arduino,2013-02-06 23:30:00,
2013-02-06 15:35:00,46.8,41.8,29.93,South,180,11.2,22.4,82,0.00,,,0.02,NetBSD+Arduino,2013-02-06 23:35:00,
2013-02-06 15:40:00,46.2,42.2,29.93,South,180,3.3,17.9,85,0.02,,,0.03,NetBSD+Arduino,2013-02-06 23:40:00,
2013-02-06 15:45:00,45.9,42.6,29.93,South,180,6.3,9.0,87,0.02,,,0.03,NetBSD+Arduino,2013-02-06 23:45:00,
2013-02-06 15:50:00,46.1,43.0,29.92,South,180,5.1,9.0,88,0.02,,,0.03,NetBSD+Arduino,2013-02-06 23:50:00,
2013-02-06 15:55:00,46.2,42.4,29.92,South,180,3.3,9.0,86,0.02,,,0.03,NetBSD+Arduino,2013-02-06 23:55:00,
2013-02-06 16:00:00,46.1,42.3,29.92,South,180,4.1,9.0,86,0.02,,,0.03,NetBSD+Arduino,2013-02-07 00:00:00,
2013-02-06 16:05:00,46.1,42.2,29.92,South,180,4.2,11.9,86,0.02,,,0.03,NetBSD+Arduino,2013-02-07 00:05:00,
2013-02-06 16:10:00,45.8,42.2,29.92,South,180,2.2,10.4,87,0.02,,,0.03,NetBSD+Arduino,2013-02-07 00:10:00,
2013-02-06 16:15:00,45.8,41.8,29.92,South,180,4.5,10.4,85,0.02,,,0.03,NetBSD+Arduino,2013-02-07 00:15:00,
2013-02-06 16:20:00,45.8,41.8,29.92,South,180,6.3,10.4,85,0.02,,,0.03,NetBSD+Arduino,2013-02-07 00:20:00,
2013-02-06 16:25:00,45.6,42.1,29.92,South,180,6.3,10.4,87,0.02,,,0.03,NetBSD+Arduino,2013-02-07 00:25:00,
2013-02-06 16:35:00,45.1,42.8,29.91,South,180,4.1,7.5,91,0.03,,,0.05,NetBSD+Arduino,2013-02-07 00:35:00,
2013-02-06 16:40:00,44.8,42.5,29.92,South,180,1.8,7.5,91,0.02,,,0.05,NetBSD+Arduino,2013-02-07 00:40:00,
2013-02-06 16:45:00,44.8,42.7,29.92,South,180,3.3,6.0,92,0.02,,,0.05,NetBSD+Arduino,2013-02-07 00:45:00,
2013-02-06 16:50:00,44.8,42.6,29.92,SW,225,2.2,9.0,91,0.02,,,0.05,NetBSD+Arduino,2013-02-07 00:50:00,
2013-02-06 16:55:00,44.7,42.6,29.92,South,180,3.3,6.0,92,0.02,,,0.05,NetBSD+Arduino,2013-02-07 00:55:00,
2013-02-06 17:00:00,44.5,42.5,29.91,SE,135,3.0,7.5,92,0.03,,,0.06,NetBSD+Arduino,2013-02-07 01:00:00,
2013-02-06 17:05:00,44.4,42.5,29.91,South,180,3.0,9.0,93,0.03,,,0.06,NetBSD+Arduino,2013-02-07 01:05:00,
2013-02-06 17:10:00,44.3,42.6,29.91,South,180,3.9,6.0,93,0.03,,,0.06,NetBSD+Arduino,2013-02-07 01:10:00,
2013-02-06 17:15:00,44.2,42.6,29.90,South,180,3.9,4.5,94,0.05,,,0.08,NetBSD+Arduino,2013-02-07 01:15:00,
2013-02-06 17:20:00,44.2,42.5,29.90,South,180,3.7,10.4,93,0.05,,,0.08,NetBSD+Arduino,2013-02-07 01:20:00,
2013-02-06 17:25:00,44.2,42.6,29.90,South,180,6.6,11.9,94,0.05,,,0.08,NetBSD+Arduino,2013-02-07 01:25:00,
2013-02-06 17:30:00,44.1,42.5,29.90,South,180,1.5,9.0,94,0.03,,,0.08,NetBSD+Arduino,2013-02-07 01:30:00,
2013-02-06 17:35:00,44.1,42.7,29.89,East,90,3.7,9.0,94,0.03,,,0.08,NetBSD+Arduino,2013-02-07 01:35:00,
2013-02-06 17:40:00,43.9,42.6,29.89,South,180,4.5,7.5,94,0.03,,,0.08,NetBSD+Arduino,2013-02-07 01:40:00,
2013-02-06 17:45:00,43.9,42.5,29.89,SE,135,2.1,7.5,94,0.03,,,0.08,NetBSD+Arduino,2013-02-07 01:45:00,
2013-02-06 17:55:00,43.8,42.4,29.87,South,180,1.9,6.0,94,0.03,,,0.08,NetBSD+Arduino,2013-02-07 01:55:00,
2013-02-06 18:00:00,43.8,42.3,29.87,South,180,4.5,7.5,94,0.02,,,0.08,NetBSD+Arduino,2013-02-07 02:00:00,
2013-02-06 18:05:00,43.8,42.3,29.87,South,180,3.4,7.5,94,0.02,,,0.08,NetBSD+Arduino,2013-02-07 02:05:00,
2013-02-06 18:10:00,43.8,42.3,29.87,South,180,3.7,7.5,94,0.02,,,0.08,NetBSD+Arduino,2013-02-07 02:10:00,
2013-02-06 18:15:00,43.8,42.4,29.87,South,180,1.2,7.5,94,0.02,,,0.10,NetBSD+Arduino,2013-02-07 02:15:00,
2013-02-06 18:20:00,43.8,42.2,29.87,South,180,3.4,6.0,93,0.02,,,0.10,NetBSD+Arduino,2013-02-07 02:20:00,
2013-02-06 18:25:00,43.8,42.2,29.87,South,180,3.0,7.5,93,0.02,,,0.10,NetBSD+Arduino,2013-02-07 02:25:00,
2013-02-06 18:30:00,43.8,42.3,29.87,South,180,3.3,6.0,94,0.03,,,0.11,NetBSD+Arduino,2013-02-07 02:30:00,
2013-02-06 18:35:00,43.7,42.2,29.87,South,180,4.5,9.0,94,0.03,,,0.11,NetBSD+Arduino,2013-02-07 02:35:00,
2013-02-06 18:40:00,43.8,42.4,29.87,East,90,1.5,9.0,94,0.03,,,0.11,NetBSD+Arduino,2013-02-07 02:40:00,
2013-02-06 18:45:00,43.8,42.2,29.87,South,180,4.2,7.5,93,0.03,,,0.11,NetBSD+Arduino,2013-02-07 02:45:00,
2013-02-06 18:50:00,43.8,42.3,29.86,East,90,1.1,6.0,94,0.03,,,0.11,NetBSD+Arduino,2013-02-07 02:50:00,
2013-02-06 18:55:00,43.6,42.4,29.86,South,180,3.0,4.5,95,0.03,,,0.11,NetBSD+Arduino,2013-02-07 02:55:00,
2013-02-06 19:00:00,43.5,42.4,29.85,South,180,1.8,3.0,96,0.03,,,0.11,NetBSD+Arduino,2013-02-07 03:00:00,
2013-02-06 19:05:00,43.5,42.4,29.85,South,180,1.9,3.0,96,0.05,,,0.13,NetBSD+Arduino,2013-02-07 03:05:00,
2013-02-06 19:10:00,43.5,42.5,29.84,South,180,3.3,4.5,96,0.05,,,0.13,NetBSD+Arduino,2013-02-07 03:10:00,
2013-02-06 19:15:00,43.3,42.5,29.84,East,90,2.7,6.0,96,0.03,,,0.13,NetBSD+Arduino,2013-02-07 03:15:00,
2013-02-06 19:20:00,43.4,42.6,29.84,South,180,0.9,4.5,96,0.03,,,0.13,NetBSD+Arduino,2013-02-07 03:20:00,
2013-02-06 19:25:00,43.3,42.3,29.83,NE,45,1.9,4.5,96,0.03,,,0.13,NetBSD+Arduino,2013-02-07 03:25:00,
2013-02-06 19:35:00,43.3,42.2,29.83,South,180,3.3,6.0,96,0.02,,,0.13,NetBSD+Arduino,2013-02-07 03:35:00,
2013-02-06 19:40:00,43.2,42.0,29.82,South,180,1.5,7.5,95,0.02,,,0.13,NetBSD+Arduino,2013-02-07 03:40:00,
2013-02-06 19:45:00,43.2,41.9,29.82,South,180,2.2,6.0,95,0.02,,,0.13,NetBSD+Arduino,2013-02-07 03:45:00,
2013-02-06 19:55:00,43.0,41.8,29.82,East,90,0.3,3.0,95,0.02,,,0.13,NetBSD+Arduino,2013-02-07 03:55:00,
2013-02-06 20:00:00,43.0,41.8,29.82,South,180,2.6,3.0,95,0.02,,,0.13,NetBSD+Arduino,2013-02-07 04:00:00,
2013-02-06 20:05:00,42.9,41.7,29.82,East,90,1.1,4.5,95,0.00,,,0.13,NetBSD+Arduino,2013-02-07 04:05:00,
2013-02-06 20:15:00,43.2,41.7,29.81,South,180,3.0,6.0,94,0.00,,,0.13,NetBSD+Arduino,2013-02-07 04:15:00,
2013-02-06 20:20:00,43.4,41.7,29.82,South,180,3.4,6.0,93,0.00,,,0.13,NetBSD+Arduino,2013-02-07 04:20:00,
2013-02-06 20:25:00,43.5,41.7,29.80,East,90,0.7,7.5,93,0.00,,,0.13,NetBSD+Arduino,2013-02-07 04:25:00,
2013-02-06 20:30:00,43.3,41.4,29.80,South,180,1.5,4.5,92,0.00,,,0.13,NetBSD+Arduino,2013-02-07 04:30:00,
2013-02-06 20:35:00,43.2,41.5,29.80,South,180,2.6,4.5,93,0.00,,,0.13,NetBSD+Arduino,2013-02-07 04:35:00,
2013-02-06 20:40:00,43.2,41.5,29.80,South,180,1.9,4.5,93,0.00,,,0.13,NetBSD+Arduino,2013-02-07 04:40:00,
2013-02-06 20:45:00,43.2,41.5,29.80,South,180,3.0,7.5,93,0.00,,,0.13,NetBSD+Arduino,2013-02-07 04:45:00,
2013-02-06 20:55:00,43.0,41.6,29.80,South,180,1.9,3.0,94,0.00,,,0.13,NetBSD+Arduino,2013-02-07 04:55:00,
2013-02-06 21:00:00,43.0,41.5,29.79,SE,135,0.5,3.0,94,0.00,,,0.13,NetBSD+Arduino,2013-02-07 05:00:00,
2013-02-06 21:05:00,42.8,41.6,29.79,South,180,1.0,3.0,95,0.00,,,0.13,NetBSD+Arduino,2013-02-07 05:05:00,
2013-02-06 21:10:00,42.8,41.5,29.79,South,180,1.9,3.0,95,0.00,,,0.13,NetBSD+Arduino,2013-02-07 05:10:00,
2013-02-06 21:15:00,42.8,41.5,29.79,SE,135,0.0,3.0,95,0.00,,,0.13,NetBSD+Arduino,2013-02-07 05:15:00,
2013-02-06 21:20:00,42.9,41.8,29.79,East,90,2.6,6.0,96,0.00,,,0.13,NetBSD+Arduino,2013-02-07 05:20:00,
2013-02-06 21:25:00,42.8,41.8,29.78,East,90,1.5,6.0,95,0.00,,,0.13,NetBSD+Arduino,2013-02-07 05:25:00,
2013-02-06 21:30:00,42.9,41.6,29.78,South,180,2.0,6.0,95,0.00,,,0.13,NetBSD+Arduino,2013-02-07 05:30:00,
2013-02-06 21:40:00,42.7,41.5,29.77,South,180,1.5,4.5,95,0.00,,,0.13,NetBSD+Arduino,2013-02-07 05:40:00,
2013-02-06 21:45:00,42.6,41.5,29.77,South,180,1.5,6.0,95,0.00,,,0.13,NetBSD+Arduino,2013-02-07 05:45:00,
2013-02-06 21:50:00,42.6,41.4,29.77,South,180,0.7,4.5,95,0.00,,,0.13,NetBSD+Arduino,2013-02-07 05:50:00,
2013-02-06 21:55:00,42.6,41.5,29.77,South,180,0.0,3.0,95,0.00,,,0.13,NetBSD+Arduino,2013-02-07 05:55:00,
2013-02-06 22:00:00,42.6,41.5,29.76,South,180,1.0,3.0,95,0.00,,,0.13,NetBSD+Arduino,2013-02-07 06:00:00,
2013-02-06 22:05:00,42.6,41.5,29.77,South,180,1.0,3.0,95,0.00,,,0.13,NetBSD+Arduino,2013-02-07 06:05:00,
2013-02-06 22:10:00,42.6,41.5,29.76,South,180,2.1,3.0,95,0.00,,,0.13,NetBSD+Arduino,2013-02-07 06:10:00,
2013-02-06 22:15:00,42.7,41.6,29.76,East,90,2.2,3.0,95,0.00,,,0.13,NetBSD+Arduino,2013-02-07 06:15:00,
2013-02-06 22:20:00,42.8,41.7,29.76,South,180,0.0,3.0,95,0.00,,,0.13,NetBSD+Arduino,2013-02-07 06:20:00,
2013-02-06 22:25:00,42.9,41.6,29.76,SW,225,0.0,3.0,95,0.00,,,0.13,NetBSD+Arduino,2013-02-07 06:25:00,
2013-02-06 22:30:00,42.9,41.6,29.76,South,180,1.5,3.0,95,0.00,,,0.13,NetBSD+Arduino,2013-02-07 06:30:00,
2013-02-06 22:40:00,43.3,41.4,29.76,East,90,2.6,6.0,92,0.00,,,0.13,NetBSD+Arduino,2013-02-07 06:40:00,
2013-02-06 22:45:00,44.0,41.6,29.76,East,90,0.0,7.5,91,0.00,,,0.13,NetBSD+Arduino,2013-02-07 06:45:00,
2013-02-06 22:50:00,43.9,41.7,29.76,North,0,0.0,1.5,91,0.00,,,0.13,NetBSD+Arduino,2013-02-07 06:50:00,
2013-02-06 22:55:00,43.6,41.7,29.75,East,90,1.5,4.5,92,0.00,,,0.13,NetBSD+Arduino,2013-02-07 06:55:00,
2013-02-06 23:00:00,43.6,41.7,29.75,East,90,2.0,6.0,92,0.00,,,0.13,NetBSD+Arduino,2013-02-07 07:00:00,
2013-02-06 23:05:00,43.5,41.6,29.75,South,180,1.0,4.5,92,0.00,,,0.13,NetBSD+Arduino,2013-02-07 07:05:00,
2013-02-06 23:10:00,43.6,41.5,29.75,East,90,2.0,4.5,92,0.00,,,0.13,NetBSD+Arduino,2013-02-07 07:10:00,
2013-02-06 23:15:00,43.5,41.6,29.76,South,180,2.6,6.0,92,0.00,,,0.13,NetBSD+Arduino,2013-02-07 07:15:00,
2013-02-06 23:20:00,43.6,41.0,29.75,South,180,0.0,4.5,90,0.00,,,0.13,NetBSD+Arduino,2013-02-07 07:20:00,
2013-02-06 23:25:00,43.6,41.5,29.76,South,180,1.5,4.5,92,0.00,,,0.13,NetBSD+Arduino,2013-02-07 07:25:00,
2013-02-06 23:30:00,43.7,41.5,29.75,South,180,2.6,4.5,91,0.00,,,0.13,NetBSD+Arduino,2013-02-07 07:30:00,
2013-02-06 23:35:00,45.1,40.8,29.75,South,180,5.6,20.9,84,0.02,,,0.14,NetBSD+Arduino,2013-02-07 07:35:00,
2013-02-06 23:40:00,45.9,40.9,29.76,South,180,5.2,17.9,82,0.02,,,0.14,NetBSD+Arduino,2013-02-07 07:40:00,
2013-02-06 23:45:00,45.5,40.7,29.76,South,180,3.0,10.4,83,0.02,,,0.14,NetBSD+Arduino,2013-02-07 07:45:00,
2013-02-06 23:50:00,45.4,40.6,29.76,South,180,4.5,13.4,83,0.02,,,0.14,NetBSD+Arduino,2013-02-07 07:50:00,